This is the latest recevied weather packets stored in our database for station/object F1ZVN-13. If no packets are shown the sender has not sent any weather packets the latest 10 day(s).
| Time | Temp. | Humidity | Pressure | Rain* | Wind** | Luminosity | Snow |
|---|---|---|---|---|---|---|---|
| 1787723667 | 13.89° C | 65% | 1012.4 hPa | 0 mm | 0 m/s | - | - |
| 1787723539 | 13.89° C | 65% | 1012.4 hPa | 0 mm | 0 m/s | - | - |
| 1787723422 | 13.89° C | 66% | 1012.4 hPa | 0 mm | 0 m/s | - | - |
| 1787723295 | 13.89° C | 65% | 1012.4 hPa | 0 mm | 0 m/s | - | - |
| 1787723175 | 13.89° C | 67% | 1012.5 hPa | 0 mm | 0 m/s | - | - |
| 1787722812 | 13.89° C | 65% | 1012.4 hPa | 0 mm | 0 m/s | - | - |
| 1787722733 | 13.89° C | 66% | 1012.5 hPa | 0 mm | 0 m/s | - | - |
| 1787722690 | 13.89° C | 66% | 1012.5 hPa | 0 mm | 0 m/s | - | - |
| 1787722568 | 13.33° C | 68% | 1012.4 hPa | 0 mm | 0 m/s | - | - |
| 1787722325 | 13.33° C | 68% | 1012.5 hPa | 0 mm | 0 m/s | - | - |
| 1787722205 | 13.33° C | 68% | 1012.5 hPa | 0 mm | 0 m/s | - | - |
| 1787722083 | 13.33° C | 66% | 1012.7 hPa | 0 mm | 0 m/s | - | - |
| 1787721963 | 13.33° C | 65% | 1012.7 hPa | 0 mm | 0 m/s | - | - |
| 1787721720 | 13.33° C | 67% | 1012.7 hPa | 0 mm | 0 m/s | - | - |
| 1787721599 | 13.33° C | 66% | 1012.5 hPa | 0 mm | 0 m/s | - | - |
| 1787721479 | 13.89° C | 65% | 1012.7 hPa | 0 mm | 0 m/s | - | - |
| 1787721362 | 13.89° C | 64% | 1012.7 hPa | 0 mm | 0 m/s | - | - |
| 1787721115 | 13.89° C | 67% | 1012.7 hPa | 0 mm | 0 m/s | - | - |
| 1787720995 | 13.89° C | 67% | 1012.7 hPa | 0 mm | 0 m/s | - | - |
| 1787720870 | 13.89° C | 67% | 1012.8 hPa | 0 mm | 0 m/s | - | - |
| 1787720753 | 13.89° C | 66% | 1012.7 hPa | 0 mm | 0 m/s | - | - |
| 1787720386 | 13.89° C | 64% | 1012.8 hPa | 0 mm | 0 m/s | - | - |
| 1787720266 | 13.89° C | 61% | 1012.8 hPa | 0 mm | 0 m/s | - | - |
| 1787720144 | 13.89° C | 66% | 1012.8 hPa | 0 mm | 0 m/s | - | - |
| 1787720023 | 13.89° C | 66% | 1012.8 hPa | 0 mm | 0 m/s | - | - |
* Rain latest hour (hover to see other rain measurements)
** Current wind speed in m/s (hover to see current wind gust speed)